Date String (YYYY-MM-DD hh:mm:ss) UTC,Instrument flags,absolute air pressure of the measurement (hPa),sample flow rate (lpm),inlet stack bypass flow (lpm),air temperature of the measurement (°C),ambient temperature measured by the external sensor (°C),aerosol sample conditioner tube jacket temperature (°C),OPC LED temperature (°C),internal box temperature (°C),relative humidity of the measurement (%),span deviation,mass concentration of particles derived from Lorenz-Mie calculation of OPC scattering (μg/m³),mass concentration of particles derived from Lorenz-Mie calculation of OPC scattering (μg/m³),mass concentration of particles derived from Lorenz-Mie calculation of OPC scattering (μg/m³)
DateTimeUTC,F1_M11,P_M11,Q1_M11,Q2_M11,T1_M11,T2_M11,T3_M11,T4_M11,T5_M11,U1_M11,ZSPAN_M11,X2_M11,X0_M11,X1_M11
2023-08-06 00:00:00,SystemResetWarning,0833.7,5.01,000.00,029.2,027.5,000.0,037.6,030.9,20.2,0000.0,0004.87,0009.84,0004.35
2023-08-06 00:01:00,SystemResetWarning,0833.7,5.00,000.00,029.2,027.8,000.0,037.6,030.9,20.4,0000.0,0004.91,0009.90,0004.36
2023-08-06 00:02:00,SystemResetWarning,0833.7,5.00,000.00,029.3,028.0,000.0,037.6,031.0,20.4,0000.0,0004.96,0009.99,0004.38
2023-08-06 00:03:00,SystemResetWarning,0833.7,4.98,000.00,029.3,027.2,000.0,037.6,030.9,20.4,0000.0,0004.97,0009.94,0004.39
2023-08-06 00:04:00,SystemResetWarning,0833.7,5.00,000.00,029.3,025.6,000.0,037.4,030.6,20.1,0000.0,0004.97,0009.87,0004.40
2023-08-06 00:05:00,SystemResetWarning,0833.7,5.00,000.00,029.2,024.9,000.0,037.3,030.4,20.3,0000.0,0004.98,0009.85,0004.42
2023-08-06 00:06:00,SystemResetWarning,0833.7,5.01,000.00,029.1,025.1,000.0,037.4,030.3,20.0,0000.0,0005.00,0009.82,0004.45
2023-08-06 00:07:00,SystemResetWarning,0833.7,5.01,000.00,029.0,025.5,000.0,037.4,030.4,20.5,0000.0,0005.02,0009.82,0004.46
2023-08-06 00:08:00,SystemResetWarning,0833.7,4.99,000.00,029.0,026.0,000.0,037.4,030.5,20.4,0000.0,0005.00,0009.87,0004.45
2023-08-06 00:09:00,SystemResetWarning,0833.6,5.00,000.00,029.0,026.5,000.0,037.5,030.6,20.6,0000.0,0005.02,0009.79,0004.48
2023-08-06 00:10:00,SystemResetWarning,0833.7,5.01,000.00,029.1,026.8,000.0,037.5,030.7,20.9,0000.0,0005.03,0008.64,0004.50
2023-08-06 00:11:00,SystemResetWarning,0833.7,5.00,000.00,029.1,027.2,000.0,037.5,030.8,21.2,0000.0,0005.08,0008.41,0004.50
2023-08-06 00:12:00,SystemResetWarning,0833.7,5.00,000.00,029.1,027.5,000.0,037.5,030.9,22.0,0000.0,0004.89,0008.29,0004.35
2023-08-06 00:13:00,SystemResetWarning,0833.7,5.00,000.00,029.2,027.7,000.0,037.5,031.0,21.8,0000.0,0004.63,0007.96,0004.14
2023-08-06 00:14:00,SystemResetWarning,0833.7,5.01,000.00,029.3,028.0,000.0,037.6,031.0,22.1,0000.0,0004.39,0007.72,0003.93
2023-08-06 00:15:00,SystemResetWarning,0833.6,4.99,000.00,029.3,027.6,000.0,037.6,031.0,23.1,0000.0,0004.15,0008.10,0003.71
2023-08-06 00:16:00,SystemResetWarning,0833.5,4.99,000.00,029.3,025.9,000.0,037.4,030.7,25.4,0000.0,0003.92,0008.07,0003.50
2023-08-06 00:17:00,SystemResetWarning,0833.4,5.01,000.00,029.2,025.0,000.0,037.3,030.5,26.4,0000.0,0003.68,0007.86,0003.27
2023-08-06 00:18:00,SystemResetWarning,0833.5,5.01,000.00,029.1,025.0,000.0,037.3,030.3,26.2,0000.0,0003.50,0007.72,0003.09
2023-08-06 00:19:00,SystemResetWarning,0833.5,5.00,000.00,029.0,025.4,000.0,037.4,030.3,26.2,0000.0,0003.28,0007.46,0002.75
2023-08-06 00:20:00,SystemResetWarning,0833.5,5.00,000.00,029.0,025.8,000.0,037.4,030.4,26.6,0000.0,0002.95,0006.87,0002.31
2023-08-06 00:21:00,SystemResetWarning,0833.5,5.01,000.00,029.0,026.3,000.0,037.4,030.5,26.8,0000.0,0002.47,0006.27,0001.87
2023-08-06 00:22:00,SystemResetWarning,0833.5,4.99,000.00,029.0,026.7,000.0,037.4,030.6,27.3,0000.0,0001.91,0005.56,0001.42
2023-08-06 00:23:00,SystemResetWarning,0833.6,5.00,000.00,029.1,027.1,000.0,037.5,030.7,27.0,0000.0,0001.58,0005.70,0001.20
2023-08-06 00:24:00,SystemResetWarning,0833.6,5.00,000.00,029.1,027.4,000.0,037.5,030.8,26.6,0000.0,0001.53,0006.02,0001.15
2023-08-06 00:25:00,SystemResetWarning,0833.7,5.00,000.00,029.2,027.6,000.0,037.5,030.9,26.2,0000.0,0001.51,0005.92,0001.14
2023-08-06 00:26:00,SystemResetWarning,0833.7,5.00,000.00,029.2,027.9,000.0,037.5,031.0,26.5,0000.0,0001.52,0005.24,0001.14
2023-08-06 00:27:00,SystemResetWarning,0833.7,5.00,000.00,029.3,027.9,000.0,037.5,031.0,26.4,0000.0,0001.53,0004.72,0001.13
2023-08-06 00:28:00,SystemResetWarning,0833.7,4.97,000.00,029.3,026.4,000.0,037.4,030.8,26.4,0000.0,0001.50,0005.04,0001.14
2023-08-06 00:29:00,SystemResetWarning,0833.6,5.02,000.00,029.2,025.1,000.0,037.3,030.5,26.7,0000.0,0001.47,0004.86,0001.14
2023-08-06 00:30:00,SystemResetWarning,0833.6,5.01,000.00,029.1,024.9,000.0,037.3,030.4,26.7,0000.0,0001.46,0004.74,0001.15
2023-08-06 00:31:00,SystemResetWarning,0833.6,5.00,000.00,029.0,025.3,000.0,037.3,030.3,26.8,0000.0,0001.50,0004.52,0001.18
2023-08-06 00:32:00,SystemResetWarning,0833.6,5.01,000.00,029.0,025.7,000.0,037.4,030.4,26.5,0000.0,0001.52,0004.47,0001.19
2023-08-06 00:33:00,SystemResetWarning,0833.6,4.99,000.00,029.0,026.2,000.0,037.4,030.5,27.3,0000.0,0001.60,0004.67,0001.24
2023-08-06 00:34:00,SystemResetWarning,0833.6,5.00,000.00,029.0,026.6,000.0,037.4,030.6,25.9,0000.0,0001.70,0004.40,0001.32
2023-08-06 00:35:00,SystemResetWarning,0833.6,5.00,000.00,029.0,027.0,000.0,037.4,030.7,26.3,0000.0,0001.84,0003.83,0001.42
2023-08-06 00:36:00,SystemResetWarning,0833.6,5.00,000.00,029.1,027.3,000.0,037.5,030.8,26.0,0000.0,0001.93,0003.92,0001.50
2023-08-06 00:37:00,SystemResetWarning,0833.6,5.00,000.00,029.1,027.6,000.0,037.5,030.9,25.6,0000.0,0002.05,0004.08,0001.59
2023-08-06 00:38:00,SystemResetWarning,0833.6,5.00,000.00,029.2,027.8,000.0,037.5,030.9,25.2,0000.0,0002.25,0004.13,0001.74
2023-08-06 00:39:00,SystemResetWarning,0833.5,4.99,000.00,029.2,027.5,000.0,037.5,030.9,24.4,0000.0,0002.52,0003.83,0001.94
2023-08-06 00:40:00,SystemResetWarning,0833.4,4.99,000.00,029.2,025.8,000.0,037.4,030.7,25.7,0000.0,0002.78,0004.65,0002.13
2023-08-06 00:41:00,SystemResetWarning,0833.4,5.01,000.00,029.1,024.8,000.0,037.3,030.4,26.4,0000.0,0002.96,0005.99,0002.32
2023-08-06 00:42:00,SystemResetWarning,0833.4,5.02,000.00,029.0,024.9,000.0,037.2,030.3,27.5,0000.0,0003.12,0006.15,0002.50
2023-08-06 00:43:00,SystemResetWarning,0833.4,5.00,000.00,028.9,025.3,000.0,037.3,030.2,27.8,0000.0,0003.26,0006.56,0002.69
2023-08-06 00:44:00,SystemResetWarning,0833.4,4.99,000.00,028.9,025.7,000.0,037.3,030.3,27.7,0000.0,0003.41,0006.92,0002.89
2023-08-06 00:45:00,SystemResetWarning,0833.4,5.00,000.00,028.9,026.2,000.0,037.3,030.4,25.6,0000.0,0003.54,0007.21,0003.02
2023-08-06 00:46:00,SystemResetWarning,0833.4,5.01,000.00,028.9,026.6,000.0,037.4,030.6,25.4,0000.0,0003.56,0007.09,0003.10
2023-08-06 00:47:00,SystemResetWarning,0833.5,5.01,000.00,029.0,027.0,000.0,037.4,030.7,26.0,0000.0,0003.64,0007.41,0003.18
2023-08-06 00:48:00,SystemResetWarning,0833.6,5.00,000.00,029.0,027.3,000.0,037.4,030.8,26.4,0000.0,0003.72,0007.52,0003.24
2023-08-06 00:49:00,SystemResetWarning,0833.7,4.99,000.00,029.1,027.6,000.0,037.4,030.8,26.0,0000.0,0003.73,0007.53,0003.28
2023-08-06 00:50:00,SystemResetWarning,0833.7,4.99,000.00,029.1,027.8,000.0,037.5,030.9,25.6,0000.0,0003.72,0007.77,0003.28
2023-08-06 00:51:00,SystemResetWarning,0833.7,5.00,000.00,029.1,027.1,000.0,037.4,030.7,26.0,0000.0,0003.72,0007.89,0003.29
2023-08-06 00:52:00,SystemResetWarning,0833.7,5.00,000.00,029.1,025.4,000.0,037.3,030.5,26.0,0000.0,0003.72,0007.16,0003.30
2023-08-06 00:53:00,SystemResetWarning,0833.7,5.00,000.00,029.0,024.8,000.0,037.2,030.3,26.3,0000.0,0003.74,0007.07,0003.31
2023-08-06 00:54:00,SystemResetWarning,0833.7,5.01,000.00,028.9,025.0,000.0,037.2,030.1,26.5,0000.0,0003.74,0007.04,0003.31
2023-08-06 00:55:00,SystemResetWarning,0833.6,5.01,000.00,028.9,025.4,000.0,037.2,030.2,26.5,0000.0,0003.71,0006.91,0003.31
2023-08-06 00:56:00,SystemResetWarning,0833.7,4.99,000.00,028.9,025.9,000.0,037.3,030.3,26.3,0000.0,0003.67,0006.76,0003.31
2023-08-06 00:57:00,SystemResetWarning,0833.7,5.00,000.00,028.9,026.3,000.0,037.3,030.5,26.3,0000.0,0003.69,0007.11,0003.31
2023-08-06 00:58:00,SystemResetWarning,0833.7,5.00,000.00,028.9,026.7,000.0,037.3,030.6,27.8,0000.0,0003.71,0007.21,0003.32
2023-08-06 00:59:00,SystemResetWarning,0833.8,5.00,000.00,029.0,027.1,000.0,037.4,030.7,28.6,0000.0,0003.72,0007.18,0003.32
